TimePDT,TemperatureF,Dew PointF,Humidity,Sea Level PressureIn,VisibilityMPH,Wind Direction,Wind SpeedMPH,Gust SpeedMPH,PrecipitationIn,Events,Conditions,WindDirDegrees,DateUTC
12:53 AM,64.0,64.0,100,29.97,10.0,WSW,9.2,-,N/A,,Overcast,240,2013-08-29 07:53:00
1:53 AM,63.0,63.0,100,29.98,10.0,WSW,5.8,-,N/A,,Overcast,250,2013-08-29 08:53:00
2:53 AM,63.0,63.0,100,29.98,10.0,WNW,5.8,-,N/A,,Overcast,290,2013-08-29 09:53:00
3:53 AM,62.1,62.1,100,29.98,10.0,West,5.8,-,N/A,,Overcast,260,2013-08-29 10:53:00
4:53 AM,63.0,63.0,100,29.99,10.0,WSW,3.5,-,N/A,,Overcast,250,2013-08-29 11:53:00
5:53 AM,63.0,63.0,100,30.00,10.0,West,5.8,-,N/A,,Overcast,270,2013-08-29 12:53:00
6:48 AM,62.6,62.6,100,30.02,10.0,Calm,Calm,-,N/A,,Overcast,0,2013-08-29 13:48:00
6:53 AM,63.0,63.0,100,30.02,10.0,Calm,Calm,-,N/A,,Overcast,0,2013-08-29 13:53:00
7:48 AM,64.4,64.4,100,30.04,10.0,Calm,Calm,-,N/A,,Overcast,0,2013-08-29 14:48:00
7:53 AM,64.9,64.0,97,30.04,10.0,Calm,Calm,-,N/A,,Overcast,0,2013-08-29 14:53:00
8:53 AM,64.9,64.9,100,30.05,10.0,WSW,3.5,-,N/A,,Overcast,240,2013-08-29 15:53:00
9:37 AM,66.2,64.4,94,30.06,10.0,West,5.8,-,N/A,,Overcast,260,2013-08-29 16:37:00
9:53 AM,66.9,64.9,93,30.06,10.0,West,5.8,-,N/A,,Overcast,270,2013-08-29 16:53:00
10:53 AM,66.9,64.9,93,30.07,10.0,SW,3.5,-,N/A,,Overcast,220,2013-08-29 17:53:00
11:53 AM,69.1,64.9,87,30.08,10.0,West,5.8,-,N/A,,Mostly Cloudy,270,2013-08-29 18:53:00
12:34 PM,71.6,64.4,78,30.07,10.0,West,5.8,-,N/A,,Partly Cloudy,280,2013-08-29 19:34:00
12:53 PM,72.0,64.9,78,30.06,10.0,West,8.1,-,N/A,,Partly Cloudy,260,2013-08-29 19:53:00
1:53 PM,73.0,64.9,76,30.06,10.0,West,10.4,-,N/A,,Partly Cloudy,280,2013-08-29 20:53:00
2:53 PM,73.9,64.0,71,30.05,10.0,West,11.5,-,N/A,,Partly Cloudy,280,2013-08-29 21:53:00
3:53 PM,75.0,64.0,69,30.03,10.0,West,12.7,-,N/A,,Partly Cloudy,270,2013-08-29 22:53:00
4:53 PM,73.9,64.9,73,30.02,10.0,WNW,8.1,-,N/A,,Partly Cloudy,290,2013-08-29 23:53:00
5:53 PM,71.1,66.9,87,30.01,10.0,West,12.7,-,N/A,,Partly Cloudy,270,2013-08-30 00:53:00
6:53 PM,69.1,66.0,90,30.00,10.0,West,10.4,-,N/A,,Partly Cloudy,280,2013-08-30 01:53:00
7:53 PM,66.9,66.0,97,30.01,10.0,WNW,10.4,-,N/A,,Partly Cloudy,290,2013-08-30 02:53:00
8:53 PM,66.9,66.9,100,30.02,10.0,West,8.1,-,N/A,,Partly Cloudy,280,2013-08-30 03:53:00
9:53 PM,66.0,66.0,100,30.04,10.0,West,6.9,-,N/A,,Partly Cloudy,270,2013-08-30 04:53:00
10:53 PM,66.0,66.0,100,30.04,10.0,WSW,4.6,-,N/A,,Partly Cloudy,250,2013-08-30 05:53:00
11:29 PM,66.2,66.2,100,30.05,10.0,WSW,5.8,-,N/A,,Partly Cloudy,240,2013-08-30 06:29:00
11:53 PM,64.9,64.9,100,30.05,10.0,SW,5.8,-,N/A,,Scattered Clouds,230,2013-08-30 06:53:00